Weather in Chiqirchi

Uzbekistan     41°18′40″N   60°30′37″E
temp.,
°C
wind,
m/s
gust,
m/s
humid.,
%
clouds,
%
prec.,
mm/h
press.,
hPa
HPBL,
m
7 march, sun
sun723:00+5ese114183 0.0 102122
02:00+5se23443 0.0 102122
05:00+3ssw12642 0.0 102022
08:00+3ssw22810 0.0 102022
11:00+8s45550 0.0 1020487
14:00+11s66340 0.0 10171098
17:00+13s56360 0.0 10151134
20:00+11sse454372 0.0 1015129
8 march, mon
mon823:00+10s464486 0.0 1015109
02:00+9s454898 0.0 101588
05:00+7ssw445855 0.0 101641
08:00+6nnw45670 0.0 101882
11:00+8nne89653 0.0 1021618
14:00+11ne55510 0.0 1020875
17:00+13ne44470 0.0 10181122
20:00+10ne68590 0.0 1018390
9 march, tue
tue923:00+7ne69660 0.0 1018283
02:00+5ne58677 0.0 1016233
05:00+4ene477938 0.0 1013137
08:00+5ene457891 0.0 101298
11:00+10ese335296 0.0 1012265
14:00+16s3332100 0.0 1010607
17:00+17wsw452899 0.0 10081223
20:00+14wnw4637100 0.0 1010132
10 march, wed
wed1023:00+11wnw8125771 0.0 1012516
02:00+8w8135548 0.0 1013410
05:00+6nw597824 0.0 1015423
08:00+5nw587358 0.0 1019549
11:00+6nw455682 0.1 10221051
14:00+9nw333622 0.0 10221236
17:00+10n332858 0.0 10211272
20:00+9e332933 0.0 102197
11 march, thu
thu1123:00+7e583517 0.0 1022217
02:00+5e48390 0.0 1021155
05:00+4e47450 0.0 1019142
08:00+4ese694830 0.0 1019207
11:00+9se683664 0.0 1018498
14:00+12se5630100 0.0 10161021
17:00+14ese562970 0.0 10131203
20:00+11ene6103257 0.0 1013310